Flag for Qatar Weather past 2 weeks in Al-Jamiliyah, Qatar

Now
90 °F

Scattered clouds.


Feels Like: 86 °F
Forecast: 76 / 88 °F
Wind: 12 mph from East

Location: Al Udeid

Current Time: Mar 30, 2015 at 4:51:24 PM

Latest Report: Mar 30, 2015 at 2:58 PM


Visibility: N/A

Pressure: 29.79 "Hg

Humidity: 21%

Dew point: 45 °F

Location of Al-JamiliyahLocation

Historic Weather in Al-Jamiliyah — Graph

°F

Al-Jamiliyah temperature yesterday

Maximum temperature yesterday: 89 °F (at 1:58 PM)
Minimum temperature yesterday: 62 °F (at 5:58 AM)
Average temperature yesterday: 75 °F

Past Weeks' High & Low Weather Summary

 TemperatureHumidityPressure
High94 °F (Mar 21, 1:58 PM)100% (Mar 23, 1:58 AM)30.12 "Hg (Mar 23, 1:58 AM)
Low58 °F (Mar 24, 5:58 AM)7% (Mar 29, 12:58 PM)29.78 "Hg (Mar 22, 2:58 AM)
Average75 °F63%29.94 "Hg
* Reported Mar 15 1:58 PM — Mar 30 1:58 PM, Al-Jamiliyah, Weather by CustomWeather, © 2015

Note: Actual official high and low records may vary slightly from our data, if they occured in-between our weather recording intervals... More about our weather records

Advertising

Al-Jamiliyah weather history for previous 24 hours

 ConditionsComfort  
Time TempWeatherWind HumidityBarometerVisibility
1:58 PM
Mon, Mar 30
90 °FSunny.8 mph20%29.81 "HgN/A
12:58 PM90 °FClear.8 mph26%29.83 "HgN/A
11:58 AM89 °FClear.14 mph31%29.84 "HgN/A
10:58 AM87 °FClear.12 mph32%29.87 "HgN/A
9:58 AM84 °FPassing clouds.14 mph36%29.89 "HgN/A
8:58 AM81 °FPassing clouds.12 mph50%29.90 "HgN/A
7:58 AM75 °FPassing clouds.7 mph73%29.90 "HgN/A
6:58 AM71 °FHaze.7 mph82%29.89 "Hg5 mi
5:58 AM69 °FHaze.5 mph81%29.86 "Hg5 mi
4:58 AM70 °FClear.No wind80%29.85 "HgN/A
3:58 AM70 °FClear.No wind81%29.84 "HgN/A
2:58 AM68 °FClear.2 mph86%29.84 "HgN/A
1:58 AM69 °FClear.3 mph84%29.86 "HgN/A
12:58 AM69 °FSunny.3 mph81%29.87 "HgN/A
11:58 PM
Sun, Mar 29
70 °FSunny.3 mph79%29.89 "HgN/A
10:58 PM71 °FSunny.3 mph78%29.90 "HgN/A
9:58 PM72 °FSunny.5 mph74%29.91 "HgN/A
8:58 PM73 °FPassing clouds.7 mph73%29.92 "HgN/A
7:58 PM73 °FSunny.8 mph66%29.91 "HgN/A
6:58 PM75 °FSunny.10 mph58%29.90 "HgN/A
5:58 PM77 °FPassing clouds.8 mph49%29.88 "HgN/A
4:58 PM81 °FPassing clouds.12 mph31%29.86 "HgN/A
Weather by CustomWeather, © 2015

See weather overviewHow to use our weather pages